GOES 16 (41866 NORAD) Tracking and Keplerian Element Data

This shows tracking and keplerian element data for the satellite.

Feedback or suggestion? Click here.




ElementValue
Catalog41866
NameGOES 16
Epoch Orbit2768
Epoch Day160.20396734
Epoch Year2024
RAAN258.1529
Inclination0.0688
Eccentricity8.6E-06
Argument of Perigee151.8752
Mean Anonmoly205.264
Mean Motion1.00270595
Decay Rate-2.49E-06
L11 41866U 16071A 24160.20396734 -.00000249 00000+0 00000+0 0 9991
L22 41866 0.0688 258.1529 0000086 151.8752 205.2640 1.00270595 27685



Live tracking and technical data element details for GOES 16 (NORAD 41866). GOES 16 can be tracked NOW for your location showing map with azimuth and elevation plus other details from your city location.







IsCatalogInMostPopularTable: catalog: 41866, numindb: 672
Update: records affected: 1



GetName: 41866 GOES 16

Hit Count: updated at: Mon, 17 Jun 2024 23:14:12 GMT